Abilene, TX

9:09 PM CDT on September 16, 2019 (GMT -0500)
Abilene Regional

Weather History for KABI - August, 2019

Change the Weather History Date:

Monday, August 19, 2019

  Actual Average Record
Temperature  
Mean Temperature 90 °F 83 °F  
Max Temperature 102 °F 94 °F 105 °F (1986)
Min Temperature 78 °F 72 °F 60 °F (1950)
Degree Days  
Heating Degree Days 0 0  
Month to date heating degree days 0 0  
Since 1 June heating degree days 0 1  
Since 1 July heating degree days 0 0  
Cooling Degree Days 25 18  
Month to date cooling degree days 477 354  
Year to date cooling degree days 1900 1747  
Since 1 June cooling degree days 1507 1350  
Growing Degree Days 40 (Base 50)    
Moisture  
Dew Point 62 °F    
Average Humidity 45    
Maximum Humidity 67    
Minimum Humidity 23    
Precipitation  
Precipitation 0.00 in 0.08 in 1.75 in (1910)
Month to date precipitation 0.00 1.53  
Year to date precipitation 18.80 15.90  
Sea Level Pressure  
Sea Level Pressure 29.88 in    
Wind  
Wind Speed 12 mph (SSE)    
Max Wind Speed 20 mph    
Max Gust Speed 25 mph    
Visibility 10 miles    
Events      
T = Trace of Precipitation, MM = Missing Value Source: NWS Daily Summary

Daily Weather History Graph

Daily Weather History Graph

Search for Another Location

Airport or City:

Astronomy

Aug. 19, 2019 Rise Set
Actual Time 7:05 AM CDT 8:18 PM CDT
Civil Twilight 6:39 AM CDT 8:44 PM CDT
Nautical Twilight 6:08 AM CDT 9:15 PM CDT
Astronomical Twilight 5:37 AM CDT 9:46 PM CDT
Moon 10:53 PM CDT (8/19) 10:37 AM CDT (8/19)
Length of Visible Light 14h 05m
Length of Day
13h 13m
Waning Gibbous, 85% of the Moon is Illuminated
Aug 19
Waning Gibbous
Aug 23
Last Quarter
Aug 30
New
Sep 5
First Quarter
Sep 13
Full

Hourly Weather History & Observations

Time (CDT) Temp. Heat Index Dew Point Humidity Pressure Visibility Wind Dir Wind Speed Gust Speed Precip Events Conditions
12:52 AM 86.0 °F 85.7 °F 60.1 °F 41% 29.83 in 10.0 mi SSE 9.2 mph - N/A   Clear
1:52 AM 82.0 °F 82.7 °F 61.0 °F 49% 29.83 in 10.0 mi SE 9.2 mph - N/A   Clear
2:52 AM 81.0 °F 81.7 °F 61.0 °F 50% 29.83 in 10.0 mi SE 12.7 mph - N/A   Clear
3:52 AM 81.0 °F 81.9 °F 62.1 °F 52% 29.84 in 10.0 mi South 9.2 mph - N/A   Clear
4:52 AM 80.1 °F 81.9 °F 64.9 °F 60% 29.85 in 10.0 mi South 11.5 mph - N/A   Clear
5:52 AM 80.1 °F 82.3 °F 66.9 °F 64% 29.86 in 10.0 mi SSE 11.5 mph - N/A   Clear
6:52 AM 79.0 °F - 66.9 °F 66% 29.88 in 10.0 mi SSE 11.5 mph - N/A   Clear
7:52 AM 80.1 °F 82.7 °F 68.0 °F 67% 29.89 in 10.0 mi South 10.4 mph - N/A   Clear
8:52 AM 82.9 °F 86.5 °F 69.1 °F 63% 29.91 in 10.0 mi South 11.5 mph - N/A   Clear
9:52 AM 88.0 °F 90.3 °F 66.0 °F 48% 29.92 in 10.0 mi South 16.1 mph - N/A   Clear
10:52 AM 91.0 °F 93.0 °F 64.9 °F 42% 29.93 in 10.0 mi SSW 15.0 mph 21.9 mph N/A   Clear
11:52 AM 93.9 °F 95.6 °F 64.0 °F 37% 29.93 in 10.0 mi SSW 12.7 mph 20.7 mph N/A   Clear
12:52 PM 96.1 °F 96.9 °F 62.1 °F 32% 29.92 in 10.0 mi SSW 12.7 mph - N/A   Clear
1:52 PM 99.0 °F 100.5 °F 62.1 °F 30% 29.91 in 10.0 mi South 11.5 mph - N/A   Clear
2:52 PM 100.0 °F 101.2 °F 61.0 °F 28% 29.89 in 10.0 mi South 10.4 mph - N/A   Clear
3:52 PM 100.0 °F 100.2 °F 59.0 °F 26% 29.87 in 10.0 mi South 8.1 mph - N/A   Clear
4:52 PM 102.0 °F 101.1 °F 57.0 °F 22% 29.85 in 10.0 mi SSE 16.1 mph - N/A   Clear
5:52 PM 100.9 °F 101.0 °F 59.0 °F 25% 29.85 in 10.0 mi SSE 11.5 mph 23.0 mph N/A   Clear
6:52 PM 100.0 °F 100.2 °F 59.0 °F 26% 29.84 in 10.0 mi SSE 8.1 mph - N/A   Clear
7:52 PM 98.1 °F 98.1 °F 60.1 °F 28% 29.86 in 10.0 mi ESE 13.8 mph - N/A   Clear
8:52 PM 93.0 °F 93.0 °F 61.0 °F 34% 29.87 in 10.0 mi ESE 9.2 mph - N/A   Clear
9:52 PM 90.0 °F 90.3 °F 62.1 °F 39% 29.90 in 10.0 mi ESE 9.2 mph - N/A   Clear
10:52 PM 88.0 °F 88.4 °F 62.1 °F 42% 29.92 in 10.0 mi ESE 12.7 mph - N/A   Clear
11:52 PM 87.1 °F 87.5 °F 62.1 °F 43% 29.93 in 10.0 mi SE 13.8 mph - N/A   Clear